Location: Wald
(31.7579°N, 86.6655°W)
Time: 20:47:19
(UTC+00:00)

SL-16 R/B - Pass Details

Date: 14 July 2020
Orbit: 985 x 1007 km, 99.5° (Epoch: 13 August)

Event Time Altitude Azimuth Distance (km) Brightness Sun altitude
Exits shadow 08:57:23 19° 278° (W) 2,173 4.0 -20.7°
Drops below altitude 10° 09:00:48 10° 310° (NW) 2,778 4.8 -20.2°
Sets 09:04:03 0° 327° (NNW) 3,735 5.7 -19.7°
